Location: Poughquag
(41.6090°N, 73.6820°W)
Time: 12:15:36
(UTC-04:00)

Tiros 1 - Pass Details

Date: 05 June 2020
Orbit: 630 x 664 km, 48.4° (Epoch: 06 July)

Event Time Altitude Azimuth Distance (km) Brightness Sun altitude
Rises 12:22:48 0° 257° (WSW) 2,979 10.5 70.0°
Reaches altitude 10° 12:25:12 10° 261° (W) 2,064 9.8 70.1°
Maximum altitude 12:29:53 55° 340° (NNW) 786 8.2 70.4°
Drops below altitude 10° 12:34:31 10° 58° (ENE) 2,049 9.8 70.6°
Sets 12:36:54 0° 63° (ENE) 2,954 10.5 70.7°
